Location: Unspecified
(0.0000°N, 0.0000°E)
Time: 16:49:42
(UTC+00:00)

SKYMED 3 - Visible Passes

Search period start: 23 May 2017 00:00
Search period end: 02 June 2017 00:00
Orbit: 621 x 623 km, 97.9° (Epoch: 22 May)

Date Brightness Start Highest point End Pass type
(mag) Time Alt. Az. Time Alt. Az. Time Alt. Az.
23 May 6.9 05:07:25 10° SE 05:11:09 28° ENE 05:14:51 10° NNE visible
24 May 5.6 05:24:54 10° SSE 05:29:08 51° ENE 05:33:19 10° N visible
27 May 7.9 04:45:07 10° ESE 04:47:09 13° ENE 04:49:11 10° NE visible
27 May 7.7 18:28:55 10° NNW 18:31:58 19° WNW 18:35:01 10° WSW visible
28 May 7.3 05:01:40 10° SE 05:05:07 23° ENE 05:08:34 10° NNE visible
28 May 8.4 18:49:17 10° WNW 18:49:56 10° WNW 18:50:34 10° W visible
29 May 6.1 05:19:00 10° SSE 05:23:06 42° ENE 05:27:10 10° N visible
01 Jun 8.2 04:40:12 10° E 04:41:06 11° ENE 04:42:03 10° ENE visible
01 Jun 7.5 18:22:31 10° NNW 18:25:55 23° WNW 18:29:20 10° SW visible
